DECAYED

STARLINK-2368, 47908 (Decayed)

Orbit data source: Space-Track

STARLINK-2368, 47908 was a payload satellite owned by SpaceX/Seattle (US) in LEO that was launched on Sun, 14 Mar 2021 UTC via an FALCON 9 launch vehicle from the Air Force Eastern Test Range (AFETR). Payload-class satellites include a variety of spacecraft equipped with specific instruments for various scientific and technological missions. These include communications satellites like Starlink; space stations such as the ISS; scientific satellites like the Hubble; Earth observation satellites from companies like Planet Labs, Umbra, and HawkEye 360; GPS; miniature CubeSats for education and research; and military/defense satellites.

Not visible in the next 10 days
Identifier
47908, 2021-021BA
Orbit
Decayed
Country
Flag of USUS
Related business
Manufacturer
SpaceX/Seattle
Mission
Decayed Commercial Communications
Bus & Motor
STARLINK, Unknown motor
Mass
260 kg wet, ~248 kg dry
Launch date (UTC)
2021-03-14 (5 years ago)
Launch vehicle
FALCON 9
Launch site
Air Force Eastern Test Range (AFETR)
Object type
Payload
Rocket body
Debris
Shape & HBR
Box + 1 Pan, 10.1 m
Radar Cross Section
13.562 m², Large (>1 m²)

Expand to show TLE details & history
Last TLE update: 6 months ago

TLE from 6 months ago
0 STARLINK-2368
1 47908U 21021BA  25357.16090475  .11032768  12423-4  45605-3 0  9995
2 47908  53.0305 226.6091 0006012 250.6234 109.4165 16.43405093265041
Epoch: 2025-12-23T03:51Z
TLE epoch observation values (Epoch: 2025-12-23T03:51:42.170Z)
Latitude
0.00005°
Longitude
76.7348°
Altitude
158.997 km
Speed
7.811 km/s
True Right ascension
15h 06m 26s
True Declination
0° 00' 00"
Sunlit
Object was in daylight at epoch
Visualization orbit readout
Latitude
Unknown
Longitude
Unknown
Altitude
Unknown
Speed
Unknown
Apparent Right ascension
Unknown
Apparent Declination
Unknown
Sunlit
N/A
Visualization observer readout
Local Sidereal Time
21:32:09
Azimuth
Unknown
Elevation
Unknown
Doppler factor
Unknown
Orbital elements
Apogee altitude
160.98 km
Perigee altitude
153.122 km
Semi-major axis
6,535.188 km
Eccentricity
0.0006
Inclination
53.0305°
RAAN
226.6091°
Arg. of periapsis
250.6234°
True anomaly
109.48146°
Mean anomaly
109.4165°
Eccentric anomaly
109.44898°
Mean motion
4.10824 °/min
Orbital period
87.63 mins
BSTAR
0.00045605
Loading maneuver chart data...
Computing Atmospheric mass density...

Documentation

Showing up to 5 results
|